CZ-6A DEB, 54566

Orbit data source: Space-Track

CZ-6A DEB, 54566 is space debris in SSO originally from a launch on Fri, 11 Nov 2022 UTC launched from the Taiyaun Space Center, China (TSC). Debris objects in space refer to the collection of defunct objects orbiting the Earth. Examples of debris include non-operational satellites, rocket bodies, and fragments generated from explosions, collisions, or faulty payload assembly.

Loading next visibility...
Identifier
54566, 2022-151LS
Orbit
SSO
Country
Flag of CNCN / PRC
Related business
Manufacturer
SAST
Mission
Spacecraft
Bus & Motor
Unknown
Mass
Unknown
Launch date (UTC)
2022-11-11 (4 years ago)
Launch vehicle
Unknown
Launch site
Taiyaun Space Center, China (TSC)
Object type
Payload
Rocket body
Debris
Shape & HBR
Unknown shape, 1.6 m
Radar Cross Section
Large (>1 m²)

Expand to show TLE details & history
Last TLE update: 17 hours ago

TLE from 17 hours ago
0 CZ-6A DEB
1 54566U 22151LS  26236.40620998  .00000298  00000-0  19797-3 0  9999
2 54566  98.8574 230.1159 0055550 160.7873 199.5408 14.07946323194034
Epoch: 2026-08-24T09:44Z
TLE epoch observation values (Epoch: 2026-08-24T09:44:56.542Z)
Latitude
-0.00002°
Longitude
111.19194°
Altitude
907.259 km
Speed
7.379 km/s
True Right ascension
15h 20m 27s
True Declination
0° 00' 00"
Sunlit
Object was in daylight at epoch
Visualization orbit readout
Latitude
Unknown
Longitude
Unknown
Altitude
Unknown
Speed
Unknown
Apparent Right ascension
Unknown
Apparent Declination
Unknown
Sunlit
N/A
Visualization observer readout
Local Sidereal Time
17:55:27
Azimuth
Unknown
Elevation
Unknown
Doppler factor
Unknown
Orbital elements
Apogee altitude
903.817 km
Perigee altitude
823.362 km
Semi-major axis
7,241.727 km
Eccentricity
0.00556
Inclination
98.8574°
RAAN
230.1159°
Arg. of periapsis
160.7873°
True anomaly
199.32927°
Mean anomaly
199.5408°
Eccentric anomaly
199.4349°
Mean motion
3.52192 °/min
Orbital period
102.22 mins
BSTAR
0.00019797
Loading maneuver chart data...
Computing Atmospheric mass density...

Documentation

Showing up to 5 results
|